Location: North Evanston
(42.0634°N, 87.6976°W)
Time: 13:47:01
(UTC+00:00)

Injun/Solrad 3 - Pass Details

Date: 12 May 2026
Orbit: 867 x 989 km, 66.8° (Epoch: 7 June)

Event Time Altitude Azimuth Distance (km) Brightness Sun altitude
Rises 04:58:23 0° 336° (NNW) 3,666 12.2 -28.7°
Reaches altitude 10° 05:01:57 10° 356° (N) 2,733 11.3 -28.9°
Maximum altitude 05:06:05 18° 36° (NE) 2,243 10.3 -29.1°
Drops below altitude 10° 05:10:14 10° 77° (ENE) 2,749 10.4 -29.2°
Enters shadow 05:12:15 - 89° (E) 3,250 10.6 -29.3°
Sets 05:13:48 0° 96° (E) 3,695 - -29.3°
